Regional Weather Roundup
Issued by NWS Grand Forks, ND

Home | Current Version | Previous Version | Text Only | Print | Product List | Glossary Off
Versions: 1 2 3 4 5 6 7 8 9 10 11 12 13 14 15 16 17 18 19 20 21 22 23 24 25 26 27 28 29 30 31 32 33 34 35 36 37 38 39 40 41 42 43 44 45 46 47 48 49 50

000
ASUS43 KFGF 061210
RWRFGF
PRAIRIE TO PINES  WEATHER ROUNDUP
NATIONAL WEATHER SERVICE EASTERN NORTH DAKOTA/GRAND FORKS ND
700 AM CDT FRI MAY 06 2016

 **SATELLITE DATA USED TO AUGMENT SKY COVER AT AUTOMATED STATIONS**
 *****  WEATHER ACROSS EASTERN NORTH DAKOTA  *****

CITY           SKY/WX    TMP DP  RH WIND       PRES   REMARKS
GRAND FORKS    NOT AVBL
GRAND FRKS AFB MOCLDY    63  48  59 W7        29.68S
DEVILS LAKE    NOT AVBL
WAHPETON ARPT  SUNNY     55  41  58 SE7       29.77S
$$

 ***** WEATHER ACROSS CENTRAL AND WESTERN NORTH DAKOTA  *****

CITY           SKY/WX    TMP DP  RH WIND       PRES   REMARKS
BISMARCK       NOT AVBL
MINOT          NOT AVBL
JAMESTOWN      NOT AVBL
MINOT AFB      CLOUDY    58  46  63 NW16      29.84R
GARRISON         N/A     61  45  55 N14       29.81R
WILLISTON      NOT AVBL
DICKINSON      NOT AVBL
HETTINGER      NOT AVBL
$$

 *****  OTHER AIRPORT OBSERVATIONS IN OUR AREA  *****

CITY           SKY/WX    TMP DP  RH WIND       PRES   REMARKS
WALHALLA       FAIR      64  45  48 N22G29    29.72R
GRAFTON AIRPOR FAIR      63  46  55 SW8       29.68R
VALLEY CITY AR FAIR      54  50  87 S7        29.78R
CANDO          FAIR      59  45  58 N13       29.78R
CAVALIER APRT  FAIR      68  41  37 NW15      29.68R
GWINNER        FAIR      57  46  67 SW10      29.77S
SHEYENNE NWR     N/A     56  43  62 W5        29.95S
ROLLA          FAIR      59  43  55 NW25G36   29.81R
 ***** THE ABOVE OBSERVATIONS ARE NON NWS ARE NOT QUALITY
       CONTROLLED AND MAY MIS-REPORT RAIN FOR SNOW...
$$

  *****  WEATHER ACROSS NORTHERN MINNESOTA  *****

CITY           SKY/WX    TMP DP  RH WIND       PRES   REMARKS
FLAG ISLAND    MOSUNNY   61  45  55 SW12      29.61S
WARROAD        CLOUDY    64  50  59 SW9       29.65S
ROSEAU         CLOUDY    66  48  52 SW14G20   29.64S
HALLOCK        CLOUDY    59  45  58 S6        29.67R
THF RVR FALLS  NOT AVBL
BAUDETTE       NOT AVBL
WASKISH        MOSUNNY   66  46  48 SW10      29.72S
CROOKSTON      CLOUDY    59  45  58 S10       29.72R
STEPHEN NDAWN    N/A     63  46  55 S7          N/A
GREENBUSH NDAW   N/A     61  48  63 S7          N/A
$$
  *****  WEATHER ACROSS CENTRAL AND WEST MINNESOTA  *****

CITY           SKY/WX    TMP DP  RH WIND       PRES   REMARKS
FOSSTON        CLEAR     59  43  55 S9        29.75S
BEMIDJI        CLEAR     64  44  46 SW5       29.75S
PARK RAPIDS    NOT AVBL
ELBOW LAKE     FAIR      56  46  67 SE9       29.81S
6HR MIN TEMP:  55; 6HR MAX TEMP:  61;

WADENA         CLEAR     59  45  58 SW6       29.80S
DETROIT LAKES  CLEAR     63  45  51 S7        29.80R
MOORHEAD       CLEAR     57  45  62 SE9       29.76F
FERGUS FALLS   CLEAR     59  45  58 SE7       29.77S
MORRIS MN      CLEAR     57  45  62 SE9       29.80F
STAPLES        CLEAR     61  43  51 S5        29.81S
$$
  *****  WEATHER ELSEWHERE ACROSS MINNESOTA  *****

CITY           SKY/WX    TMP DP  RH WIND       PRES   REMARKS
DULUTH         NOT AVBL
INTRNTL FALLS  NOT AVBL
ELY            SUNNY     63  39  42 SW6       29.75S
CLOQUET        SUNNY     64  39  39 W8        29.80S
WHEATON        CLEAR     61  48  63 S3        29.79S
BRAINERD       NOT AVBL
HIBBING        NOT AVBL
ALEXANDRIA     NOT AVBL
SAINT CLOUD    NOT AVBL
MINNEAPOLIS    NOT AVBL
$$

  *****  WEATHER ACROSS SOUTH DAKOTA  *****

CITY           SKY/WX    TMP DP  RH WIND       PRES   REMARKS
SIOUX FALLS    NOT AVBL
BROOKINGS      NOT AVBL
WATERTOWN      NOT AVBL
HURON          CLEAR     60  50  69 S14       29.81S
6HR MIN TEMP:  59; 6HR MAX TEMP:  63;

SISSETON         N/A     67  47  48 SW20G26   29.75S
ABERDEEN       NOT AVBL
MITCHELL       NOT AVBL
PIERRE         NOT AVBL
MOBRIDGE       NOT AVBL
RAPID CITY     CLOUDY    51  40  65 CALM      29.87R
6HR MIN TEMP:  48; 6HR MAX TEMP:  58;

$$

  *****  SOME WEATHER IN NEARBY STATES *****

CITY           SKY/WX    TMP DP  RH WIND       PRES   REMARKS
GLASGOW MT     CLOUDY    52  42  69 N18G31    30.07R
6HR MIN TEMP:  52; 6HR MAX TEMP:  66;

GREAT FALLS MT CLOUDY    46  44  93 N10       30.22R
6HR MIN TEMP:  46; 6HR MAX TEMP:  53;

CHEYENNE WY    CLOUDY    44  37  76 W10       30.01S
6HR MIN TEMP:  44; 6HR MAX TEMP:  59;

SCOTTSBLUFF NE CLOUDY    54  44  69 E9        29.93S
6HR MIN TEMP:  54; 6HR MAX TEMP:  68;

OMAHA NE       NOT AVBL
DES MOINES IA  NOT AVBL
DAVENPORT IA   SUNNY     51  39  63 SW7       30.01R
6HR MIN TEMP:  46; 6HR MAX TEMP:  51;

CHICAGO IL     CLOUDY    52  43  71 SW3       29.99R
6HR MIN TEMP:  42; 6HR MAX TEMP:  52;

EAU CLAIRE WI  NOT AVBL
LA CROSSE WI   NOT AVBL
$$

  *****  SOME NATIONAL WEATHER *****

CITY           SKY/WX    TMP DP  RH WIND       PRES   REMARKS
LA GUARDIA NY  LGT RAIN  50  48  93 NE18      29.69S FOG
6HR MIN TEMP:  49; 6HR MAX TEMP:  53; 6HR PCP:  0.38;

RALEIGH NC     CLOUDY    51  49  92 W5        29.71R
6HR MIN TEMP:  50; 6HR MAX TEMP:  51; 6HR PCP:  0.33;

ATLANTA GA     SUNNY     50  42  74 NW16      29.91R
6HR MIN TEMP:  46; 6HR MAX TEMP:  50;

NEW ORLEANS LA PTCLDY    65  48  54 NE9       30.02R
6HR MIN TEMP:  64; 6HR MAX TEMP:  69;

OKLAHOMA CITY  PTCLDY    52  46  80 S5        30.08R
6HR MIN TEMP:  49; 6HR MAX TEMP:  59;

ALBUQUERQUE NM PTCLDY    61  26  26 CALM      29.97F
6HR MIN TEMP:  60; 6HR MAX TEMP:  69;

SALT LAKE CITY CLOUDY    68  38  33 E10       29.78F
6HR MIN TEMP:  65; 6HR MAX TEMP:  73;

LOS ANGELES CA MOCLDY    58  54  86 CALM      29.83S
6HR MIN TEMP:  57; 6HR MAX TEMP:  61; 6HR PCP:  0.01;

BOISE ID       CLOUDY    56  50  80 CALM      29.84R
6HR MIN TEMP:  56; 6HR MAX TEMP:  62;

SEATTLE WA     PTCLDY    51  45  79 NW3       30.07R
6HR MIN TEMP:  50; 6HR MAX TEMP:  61;

$$

*** WEATHER ACROSS MANITOBA...SASKATCHEWAN AND ONTARIO ***
                ***ONTARIO***

CITY           SKY/WX    TMP DP  RH WIND       PRES   REMARKS
GERALDTON      CLOUDY    39  32  75 E5        29.75F
THUNDER BAY    PTSUNNY   43  36  75 NW9       29.79R
SIOUX LOOKOUT  PTSUNNY   59  45  58 S5        29.59F
TORONTO        MOSUNNY   52  39  62 N12       29.87R
BIG TROUT LK   CLOUDY    30  19  64 E10G17    29.75R WCI  21
PICKLE LAKE    PTSUNNY   48  37  66 SE7       29.60S
DRYDEN         CLOUDY    61  41  48 S10       29.61F
KENORA         PTSUNNY   63  41  45 S10       29.61S
$$
                *** MANITOBA***

CITY           SKY/WX    TMP DP  RH WIND       PRES   REMARKS
BRANDON        MOCLDY    57  41  54 N21G30    29.84R
DAUPHIN        PTCLDY    54  43  66 N9G18     29.91R
ISLAND LAKE    PTSUNNY   36  27  69 N8        29.73F
PILOT MOUND      N/A     59  45  58 N21G29      N/A
THE PAS        CLOUDY    45  43  93 W12       29.92R
THOMPSON       MOCLDY    28  27  93 NE3       29.85F
WINNIPEG       MOCLDY    59  43  55 N21       29.71R
LYNN LAKE      MOCLDY    37  34  87 NW13G18   29.87R
CHURCHILL      LGT SNOW  23  23 100 SE7       29.94F VSB 1   WCI  15
GILLAM         FLURRIES  25  23  93 NE7       29.88R WCI  17
$$
                ***SASKATCHEWAN***

CITC1F1C2F2C3F3C4F4C5F5C6F6C7F7C8F8C9F9CaFaCbFbCcFcCd!



USA.gov is the U.S. government's official web portal to all federal, state and local government web resources and services.